Hourly Data Report for October 09, 2013

All times are specified in Local Standard Time (LST). Add 1 hour to adjust for Daylight Saving Time where and when it is observed.

PETAWAWA AWOS 2
ONTARIO

45°57'00.000" N
77°19'00.000" W
130.10 m
6106396
71625
YWA

Related Data

No related data is available for this station

Download Data

Hourly Data (October 2013)
Hourly Data Report for October 9, 2013
Temp Definition
°C
Dew Point Temp Definition
°C
Rel Hum Definition
%
Wind Dir Definition
10's deg

Wind Spd Definition
km/h
Visibility Definition
km
Stn Press Definition
kPa
Hmdx Definition


Wind Chill Definition


Weather Definition


TIME
00:00 2.7 2.4 98   0 15.0 101.16      
01:00 2.1 1.8 98 18 4 9.7 101.18      
02:00 1.8 1.7 99   0 15.0 101.19      
03:00 3.1 2.3 94   0 15.0 101.22      
04:00 6.8 6.8 100 13 4 15.0 101.28      
05:00 7.2 7.0 99 13 6 15.0 101.30      
06:00 2.4 2.4 100   0 15.0 101.34      
07:00 4.5 4.5 100 16 4 0.3 101.40      
08:00 7.2 7.2 100 10 6 0.6 101.42      
09:00 8.2 8.0 99 9 6 15.0 101.41      
10:00 11.4 9.4 87 8 6 15.0 101.36      
11:00 14.5 9.8 73 8 7 15.0 101.31      
12:00 18.1 9.2 56 17 11 15.0 101.23      
13:00 18.5 9.7 57 16 7 15.0 101.15      
14:00 19.6 7.8 46 16 15 15.0 101.10      
15:00 19.7 7.0 44 14 11 15.0 101.03      
16:00 19.7 7.2 44 15 13 15.0 100.98      
17:00 18.4 7.9 50 15 6 15.0 100.96      
18:00 16.7 7.4 54 13 6 15.0 100.95      
19:00 15.0 8.3 64 14 4 15.0 100.96      
20:00 10.4 7.8 84   0 15.0 100.97      
21:00 8.2 7.1 93   0 15.0 100.99      
22:00 6.9 6.3 96   0 15.0 101.00      
23:00 6.6 6.0 96   0 15.0 100.98      

Notes on Data Quality.

Legend

  • E = Estimated
  • M = Missing
  • NA = Not Available
  • ‡ = Partner data that is not subject to review by the National Climate Archives
Date modified: